カタログに戻る

COSMOS 970 DEB *

運用中LEO
NORAD 20032·DEBRIS·🇷🇺 Russia

打ち上げ Dec 21, 1977 から Baikonur Cosmodrome

Loading…

次のパス (今後24時間)

TLE

最新Source: Space-Track

元期: Sep 14, 2026, 14:39 UTC

1 20032U 77121BW  26257.61063980  .00007125  00000-0  10771-2 0  9993
2 20032  65.6621 337.0232 0357659 262.0113 165.6536 14.39788223668172

AllMySatでCOSMOS 970 DEB *をリアルタイム追跡

Download on the App Store